Temperature
15 15 16 16 14 13 14 15 18 19 20 21 21 20 19 19 19 19 18 18 18 17 17 17 16 16 16 16 16 16 16 16 16 17 16 16 16 16 16 16 16 16 16 16 16 16 16 16 15
14 15 15 15 13 13 14 16 18 19 21 21 21 20 19 18 18 17 17 17 18 18 17 16 16 16 16 16 16 16 16 16 16 16 17 16 16 16 17 17 17 17 17 17 16 16 16 16 16
14 14 15 12 12 13 15 17 18 20 21 21 20 19 19 18 18 17 17 17 18 17 17 16 16 16 16 16 17 16 16 17 17 17 17 17 17 17 17 17 17 17 17 17 17 16 16 16 16
13 14 14 12 13 14 16 18 19 20 20 20 20 18 18 18 18 18 18 17 18 17 17 16 16 16 16 17 17 17 16 17 17 17 17 17 17 17 17 17 17 17 17 17 17 16 16 16 16
13 13 12 12 14 15 16 18 19 19 19 19 19 17 18 19 19 18 18 17 17 17 17 16 16 16 16 17 17 16 17 17 17 17 17 17 17 17 17 17 17 17 17 17 17 17 16 16 16
12 12 12 12 14 15 16 19 19 19 19 19 18 17 17 18 19 18 18 17 17 17 16 16 16 16 16 17 17 17 17 17 17 17 17 18 18 18 18 17 17 17 17 17 17 17 16 16 16
11 11 12 13 14 15 17 19 19 18 18 19 19 17 17 17 18 18 18 17 17 17 16 16 16 16 16 17 17 17 17 17 17 17 18 18 18 18 18 17 17 17 17 17 17 17 16 16 16
12 11 12 13 14 15 17 18 19 19 18 19 19 17 17 17 17 17 17 17 17 16 16 16 16 16 16 16 17 17 17 17 17 17 17 17 18 18 18 18 17 17 17 17 17 17 16 16 16
12 11 11 13 14 15 17 17 18 19 18 18 18 18 18 18 17 17 17 16 16 16 16 16 16 16 16 16 17 17 17 17 17 17 17 17 17 17 17 17 17 17 17 17 17 17 16 16 16
11 10 12 13 14 14 15 16 17 17 17 17 17 18 17 17 17 17 17 16 16 16 16 16 16 16 16 16 16 16 17 17 17 17 17 17 17 17 17 17 17 17 17 17 17 16 16 16 16
11 10 12 13 13 14 15 15 16 16 16 16 17 17 17 17 17 17 17 17 17 17 16 16 16 16 16 16 16 16 17 17 17 17 17 17 17 17 17 17 17 17 17 17 16 16 16 16 16
10 11 12 12 13 14 14 14 15 15 16 17 18 18 17 17 17 17 17 17 17 17 16 16 16 16 16 16 16 16 17 17 17 17 17 17 17 17 17 16 16 16 16 16 16 16 16 15 15
10 10 11 12 13 13 14 14 14 15 16 16 17 17 17 17 17 17 17 17 16 16 16 16 16 16 16 16 16 16 16 16 16 16 16 16 16 16 16 16 16 16 16 16 15 15 15 15 15
10 10 11 11 12 12 13 13 14 14 15 16 16 16 17 17 17 17 16 16 16 16 16 16 16 16 16 16 16 16 16 16 16 16 16 16 16 16 16 16 16 15 15 15 15 15 15 14 14
10 10 10 11 11 11 13 13 13 14 15 15 15 16 16 17 17 17 17 17 17 16 16 16 16 16 16 16 16 16 16 16 16 16 16 16 15 15 15 15 15 15 15 15 15 14 14 14 14
9 9 9 10 11 11 12 11 13 14 14 14 15 15 16 16 17 17 17 17 17 16 16 16 16 16 16 16 15 15 15 15 15 15 15 15 15 15 15 15 15 15 14 14 14 14 14 14 13
8 8 9 10 11 11 11 11 12 13 13 13 14 15 16 16 16 17 17 17 17 17 16 16 16 16 16 16 15 15 15 15 15 15 15 15 15 15 15 15 15 14 14 14 14 14 13 13 13
8 8 9 9 10 10 10 10 11 13 13 13 14 15 15 16 17 17 17 17 16 16 16 16 16 16 16 15 15 15 15 15 14 15 15 15 14 14 14 14 14 14 14 14 14 13 13 13 13
9 9 9 9 10 10 10 10 11 12 12 13 14 15 15 16 17 17 17 17 16 16 16 16 16 16 16 15 15 15 15 15 15 14 14 14 14 14 14 14 14 14 14 14 13 13 13 13 13
9 9 9 10 10 10 10 10 11 12 12 13 14 15 15 16 16 17 17 17 16 16 16 16 16 16 16 16 15 15 15 15 15 15 14 14 14 14 14 14 14 14 13 13 13 13 13 13 12
9 9 9 9 10 10 10 10 10 11 13 13 14 15 15 16 16 17 17 17 17 17 17 16 16 16 16 16 15 15 15 15 14 14 14 14 14 14 14 14 14 14 13 13 13 13 12 12 12
9 10 10 10 9 9 10 9 10 10 11 12 14 15 15 16 16 16 17 17 17 17 17 17 16 16 16 16 15 15 15 15 15 15 14 14 14 14 14 14 14 13 13 13 13 13 12 12 12
9 9 9 9 9 8 9 8 9 10 11 11 12 14 15 16 16 16 17 17 17 17 17 17 16 16 16 16 15 15 15 15 15 14 14 14 14 14 14 14 13 13 13 13 13 12 12 12 11
9 9 8 7 7 8 8 8 8 9 11 11 12 14 15 16 16 16 16 16 16 16 16 16 16 16 16 16 15 15 15 15 14 14 14 14 14 14 14 13 13 13 13 12 12 12 12 11 11
8 7 6 6 6 7 8 8 9 10 10 11 12 14 15 15 16 16 16 16 16 16 16 16 16 16 15 15 15 15 15 14 14 14 14 14 14 13 13 13 13 12 12 12 12 11 11 11 10
8 7 6 6 6 6 8 8 9 10 11 13 13 14 15 15 15 16 16 16 16 16 16 15 15 15 15 15 15 14 14 14 14 14 13 13 13 13 13 12 12 12 12 11 11 11 11 10 10
8 7 7 6 6 6 7 8 9 11 11 11 12 13 14 14 15 15 15 15 15 15 15 15 15 15 14 14 14 14 14 13 13 13 13 13 12 12 12 12 12 11 11 11 10 10 10 10 9
8 7 6 6 6 7 7 8 8 10 10 10 10 12 13 13 14 14 14 14 14 14 14 14 14 14 14 14 13 13 13 13 12 12 12 12 12 12 11 11 11 11 10 10 10 9 9 9 9
7 7 7 6 6 6 7 8 9 9 10 9 10 11 12 13 13 13 13 14 14 14 13 13 13 13 13 13 13 12 12 12 12 12 12 11 11 11 11 10 10 10 10 9 9 9 8 8 8
7 7 6 6 6 5 6 7 9 9 9 10 10 11 12 12 12 13 13 13 13 13 13 13 12 12 12 12 12 12 11 11 11 11 11 11 10 10 10 10 9 9 9 8 8 8 7 7 6
Wind_Speed
7 6 1 3 4 2 5 7 5 2 1 1 2 5 6 4 3 3 5 13 17 17 20 22 22 20 19 18 18 17 17 17 17 16 17 18 18 18 19 19 19 19 19 18 18 17 17 16 15
5 2 3 4 5 4 7 7 6 6 4 3 3 4 5 3 3 7 8 15 19 18 20 20 22 21 20 19 18 17 17 17 17 17 18 18 18 19 19 19 19 18 18 17 16 16 15 14 13
3 0 3 4 6 9 7 6 7 4 3 2 2 3 3 3 4 5 10 18 17 16 19 21 23 21 20 19 18 17 17 17 17 17 18 18 18 18 18 18 18 17 17 16 15 14 13 12 12
0 2 2 4 9 9 7 5 3 3 2 0 4 4 2 1 2 8 17 17 16 13 18 22 22 21 20 19 18 18 17 17 17 17 17 18 18 18 17 17 16 16 15 15 14 13 12 11 11
1 3 4 5 9 7 6 5 2 3 3 2 4 5 2 4 8 19 19 18 16 12 17 21 22 21 20 19 18 18 18 18 17 17 17 17 17 17 16 16 15 15 14 13 12 11 10 9 9
1 2 5 9 10 7 6 5 4 3 3 2 4 6 3 3 12 16 17 16 15 14 16 20 21 20 19 19 18 17 17 17 17 17 17 16 16 16 15 14 14 13 12 11 10 9 8 7 6
4 4 6 8 8 7 7 4 6 5 3 2 4 6 4 4 10 15 16 16 14 15 14 16 18 19 19 18 18 17 17 17 17 17 16 17 16 15 14 13 13 12 11 10 9 7 6 4 4
3 3 5 5 7 7 5 3 3 5 3 1 3 8 8 8 11 15 16 15 14 12 12 12 15 16 16 16 18 17 17 17 17 17 17 17 16 14 13 12 12 11 10 8 7 6 4 2 1
2 3 6 6 6 5 2 2 1 1 4 2 2 3 7 13 14 16 15 13 13 14 11 11 12 14 15 15 16 17 17 17 18 17 17 16 14 13 12 12 11 10 9 8 6 5 3 2 2
3 4 6 3 2 2 1 1 0 3 3 2 4 4 8 11 15 17 17 17 16 16 13 10 11 12 14 13 14 14 14 15 15 15 15 13 13 12 11 12 11 10 9 8 6 6 4 4 4
3 4 3 2 2 1 1 2 2 4 2 3 7 9 9 10 12 14 15 15 15 15 14 13 11 13 13 10 12 11 12 13 14 15 15 13 12 10 10 10 10 10 9 7 6 6 6 6 6
1 1 1 2 3 3 3 2 3 2 3 3 7 10 9 11 11 12 14 14 13 14 14 14 12 12 12 12 11 11 10 11 11 14 15 13 9 9 10 9 10 10 9 8 8 7 7 8 9
1 1 2 3 3 3 3 2 1 2 1 2 4 6 8 10 9 8 9 11 13 13 14 15 14 13 11 10 9 10 10 11 13 14 15 15 10 8 9 9 10 10 10 9 8 8 7 7 8
2 1 1 2 2 3 3 3 1 2 2 1 3 5 6 8 9 7 8 10 12 13 13 13 14 13 12 9 7 8 11 13 13 13 15 16 14 11 9 8 8 10 11 11 10 8 6 5 5
1 1 1 1 0 2 3 4 3 3 2 1 3 4 6 7 8 9 10 10 11 12 12 13 14 13 12 11 10 10 11 13 11 12 15 16 14 13 10 7 6 8 11 10 8 6 4 3 3
2 3 1 1 2 1 2 5 6 3 1 4 5 5 6 7 7 8 9 9 10 11 12 13 13 13 12 10 9 8 10 11 10 12 13 14 14 13 10 6 5 8 8 7 4 3 2 2 2
3 3 2 1 3 2 3 4 6 4 3 6 7 6 7 7 7 7 7 8 9 11 11 12 11 12 12 10 8 7 8 8 10 11 10 12 12 12 10 6 6 8 5 4 3 2 2 2 3
3 3 2 3 2 3 4 4 6 7 6 8 8 8 8 8 10 8 8 8 8 10 11 11 10 11 10 8 6 5 5 5 8 8 9 11 11 11 10 6 6 6 3 3 3 3 2 2 3
4 4 4 3 4 4 6 7 8 8 6 8 9 9 9 10 9 7 7 8 7 8 10 10 11 10 9 6 6 6 6 5 5 6 9 10 10 10 9 5 4 4 4 4 4 3 3 3 1
3 4 2 1 4 4 4 7 8 8 10 11 11 11 11 10 8 7 7 7 8 9 10 10 11 11 10 8 7 5 5 4 4 4 6 8 9 8 7 5 4 3 3 3 3 3 2 2 2
2 4 3 2 0 1 2 4 8 8 9 10 10 10 11 12 11 9 9 9 9 10 11 11 11 11 10 9 5 4 3 3 3 4 4 5 8 8 7 6 4 3 3 3 3 3 4 3 3
1 1 3 3 3 1 2 3 7 7 9 11 12 11 12 11 11 9 9 9 10 10 9 9 10 10 9 9 9 9 7 6 6 5 5 4 6 7 7 6 5 3 3 3 3 3 3 3 3
2 1 3 3 2 1 0 3 7 4 8 12 12 12 12 12 11 11 10 11 10 9 8 8 9 9 8 9 10 10 7 6 4 4 6 4 3 4 5 6 4 3 2 3 2 2 2 3 3
3 5 5 4 3 2 4 5 7 6 10 9 10 11 11 11 10 9 8 7 7 6 6 7 8 7 7 8 9 10 10 8 8 7 7 5 3 3 4 5 4 3 2 2 2 1 2 2 3
5 5 3 2 1 5 4 4 9 9 10 11 10 9 9 8 8 8 8 7 7 7 7 7 8 7 7 7 8 9 9 10 10 8 8 6 4 3 3 3 3 2 2 2 1 1 1 1 2
2 5 5 4 4 4 3 6 8 9 7 6 7 7 6 6 6 7 7 8 8 8 8 7 8 6 6 6 6 6 6 6 6 6 6 6 4 4 4 4 4 3 3 2 2 1 0 1 1
3 3 4 3 1 3 5 6 8 5 4 3 2 2 4 4 4 4 5 6 7 8 8 8 8 7 6 6 6 5 6 6 6 6 6 6 5 5 5 4 4 4 3 3 2 1 0 1 1
3 4 4 3 2 4 5 4 4 6 5 3 2 1 2 2 2 3 4 5 5 6 5 5 6 6 6 6 6 5 6 6 7 7 7 7 6 6 6 5 4 4 3 2 2 1 1 1 1
2 2 3 3 3 3 3 6 5 5 4 2 2 2 2 3 3 3 3 4 4 5 5 6 6 6 6 6 6 6 6 6 6 6 7 7 6 6 6 5 4 4 3 2 2 2 1 2 1
4 5 5 3 4 4 3 7 6 5 3 2 2 3 3 3 2 2 2 2 3 4 5 6 6 6 6 6 7 7 6 6 6 7 6 6 6 6 5 5 5 4 3 3 3 2 2 2 2
Wind_Direction
313 330 44 63 75 97 219 235 233 235 211 178 100 102 103 107 163 171 115 136 135 143 147 145 142 138 134 131 128 124 119 114 110 109 111 112 111 111 110 106 104 103 101 100 100 99 96 94 91
329 340 67 89 136 189 232 226 224 221 199 143 70 77 77 73 87 108 126 141 140 143 145 146 142 139 136 135 132 128 124 118 114 111 112 113 112 110 109 107 106 104 103 102 101 100 97 93 87
319 265 125 127 168 198 216 218 215 232 232 151 92 60 101 108 107 124 143 143 138 141 145 147 142 140 139 138 136 133 128 123 119 115 113 114 114 112 111 109 108 107 106 106 104 101 97 92 84
24 92 105 158 204 215 210 210 181 181 246 83 131 95 77 37 161 137 140 140 137 137 143 146 142 142 141 141 140 138 133 129 124 121 118 117 116 115 114 112 111 111 110 109 107 103 98 90 82
106 143 168 201 218 225 225 229 204 182 196 187 136 129 94 352 115 132 139 141 140 139 144 146 144 144 144 144 143 141 138 134 130 127 124 122 121 120 119 118 117 116 115 113 111 107 101 91 80
145 149 180 206 218 230 228 214 195 216 196 176 136 126 126 94 122 139 142 143 144 144 146 148 147 146 146 147 146 144 143 139 136 133 131 129 129 128 127 125 123 122 121 119 116 112 107 96 81
166 165 193 198 210 230 227 201 184 186 181 183 150 130 140 142 138 143 143 143 144 146 146 148 148 148 148 149 148 146 146 144 141 139 137 137 136 136 135 134 132 130 129 127 125 122 117 105 80
169 159 191 191 194 222 225 192 191 166 160 122 123 145 164 170 144 139 140 143 146 149 149 148 149 149 149 150 150 148 148 147 145 143 143 143 143 144 143 143 142 141 140 140 140 141 141 134 72
149 171 197 190 188 214 244 193 265 59 106 64 67 153 158 144 138 137 141 146 153 156 155 153 151 151 151 152 153 151 150 150 148 149 151 150 150 150 152 153 154 155 156 160 165 172 187 215 279
158 191 205 210 204 204 238 225 326 65 69 82 78 79 115 135 142 148 155 160 162 164 165 161 157 156 156 159 156 155 155 156 156 159 160 160 161 163 166 170 172 173 175 182 193 206 223 246 271
171 188 215 292 335 357 28 356 18 109 113 179 161 151 142 142 151 158 161 165 168 167 168 168 166 165 165 161 163 164 164 166 169 171 171 171 173 178 178 179 185 188 191 200 215 230 241 249 259
174 226 222 287 345 15 13 0 21 80 198 216 173 160 157 159 165 168 169 168 168 171 173 172 170 170 172 168 171 172 173 177 181 186 183 178 179 182 182 187 192 194 200 209 222 234 245 253 258
209 259 282 307 356 7 14 18 1 333 339 85 133 152 172 174 172 173 171 170 169 175 177 176 174 173 172 170 175 178 183 187 190 192 192 186 181 183 187 196 198 203 207 214 224 233 242 251 255
182 239 301 326 354 352 350 319 15 292 12 71 162 183 188 187 177 171 172 177 177 178 180 176 177 175 173 175 179 182 188 192 193 195 195 190 186 185 187 192 198 207 212 216 220 225 230 239 242
85 78 22 287 349 358 2 306 244 259 352 291 242 225 213 206 188 182 184 183 181 179 179 178 179 177 178 180 183 183 187 188 190 193 193 190 188 186 186 187 195 206 211 214 216 223 224 229 235
91 97 147 232 143 61 120 255 270 297 319 282 268 253 234 229 212 198 189 186 184 179 180 180 181 181 183 182 181 178 181 183 187 187 185 185 185 183 178 180 193 202 201 198 193 197 203 227 244
77 127 152 228 182 144 180 245 284 297 262 265 263 256 242 238 237 219 200 190 185 184 181 180 179 183 184 182 179 175 173 177 182 181 181 183 183 183 179 184 195 195 187 188 194 193 193 224 252
151 140 151 191 178 155 206 246 274 269 248 253 258 254 245 234 235 226 206 194 187 185 183 181 179 183 182 178 169 165 168 176 178 180 181 181 183 184 180 180 188 184 174 184 190 201 206 216 236
153 147 165 200 186 177 208 233 246 251 250 251 252 247 243 240 242 237 215 196 187 185 184 185 183 184 179 176 177 176 183 181 180 180 180 179 179 181 177 173 175 175 180 192 192 186 207 226 202
150 156 164 183 191 193 208 238 242 237 231 233 236 238 235 237 243 233 226 208 197 193 190 188 188 184 183 187 184 181 173 172 174 167 169 173 170 171 172 168 171 171 179 190 191 186 195 221 185
123 162 165 160 134 173 168 266 246 245 241 244 239 236 237 230 229 224 217 215 202 199 195 193 190 186 186 179 162 143 128 122 154 177 177 171 165 162 158 162 160 158 166 183 192 188 195 219 225
123 178 138 121 117 243 168 257 261 235 242 243 243 237 235 234 226 219 213 211 208 208 201 193 188 185 183 175 175 174 180 186 189 181 178 167 161 159 158 157 157 160 168 184 198 185 200 202 227
166 105 93 99 106 3 212 214 274 247 240 242 237 234 232 229 220 217 214 212 210 203 196 194 185 182 181 179 182 182 185 185 165 154 161 165 158 152 152 153 151 158 171 185 186 187 203 205 213
119 66 48 41 63 283 224 199 272 232 225 239 237 232 231 229 223 218 215 205 203 195 185 180 175 178 177 178 181 184 183 174 165 167 169 167 155 146 140 138 137 141 151 166 184 199 214 219 223
81 89 55 11 349 248 231 212 251 248 238 232 232 228 222 218 214 211 203 197 194 189 185 178 175 178 179 179 183 187 182 176 176 174 172 167 163 160 157 137 136 133 135 138 143 171 209 228 227
145 137 157 187 216 270 262 230 254 263 265 247 234 227 220 216 214 209 203 198 195 190 185 178 177 178 175 175 178 176 170 168 168 166 161 163 158 150 144 134 129 127 122 114 111 129 157 135 197
142 173 170 137 228 264 263 275 301 307 321 312 286 224 216 224 221 210 200 198 196 192 188 182 176 174 174 170 161 156 155 154 152 147 140 142 141 139 137 132 126 117 107 103 105 116 107 122 122
146 149 113 138 193 250 271 264 258 297 305 326 331 283 247 232 218 196 193 193 194 191 182 170 172 176 171 163 162 157 153 148 146 143 143 143 140 134 134 129 123 116 109 108 115 118 113 118 109
160 168 156 165 195 203 258 267 241 262 276 297 299 279 264 234 222 228 216 198 184 173 171 173 172 166 165 160 151 144 143 137 135 135 140 140 133 134 137 138 131 126 118 116 126 135 140 136 116
184 195 168 184 240 218 236 269 282 284 288 312 317 320 318 295 259 232 218 186 176 181 181 181 178 173 169 159 150 146 140 137 137 139 140 136 134 133 136 135 131 127 124 123 135 146 143 144 146
Height
1518 1520 1522 1524 1528 1535 1535 1525 1516 1512 1512 1511 1512 1512 1514 1518 1521 1526 1522 1523 1527 1531 1535 1539 1541 1543 1545 1546 1547 1547 1548 1549 1549 1550 1551 1552 1554 1555 1556 1557 1558 1558 1559 1560 1560 1561 1561 1562 1562
1516 1518 1521 1522 1529 1538 1531 1519 1514 1510 1510 1511 1512 1513 1515 1517 1518 1519 1521 1525 1529 1532 1536 1539 1542 1544 1545 1546 1548 1549 1550 1550 1551 1552 1553 1554 1555 1556 1557 1558 1559 1560 1561 1562 1562 1563 1564 1564 1564
1514 1516 1519 1521 1527 1528 1522 1512 1510 1508 1509 1510 1512 1514 1516 1518 1519 1520 1522 1526 1529 1533 1536 1540 1542 1544 1546 1547 1548 1550 1551 1552 1553 1554 1555 1556 1557 1558 1559 1560 1561 1562 1563 1564 1564 1565 1566 1566 1566
1513 1516 1517 1521 1521 1515 1511 1507 1506 1508 1509 1510 1511 1515 1517 1519 1519 1521 1524 1527 1530 1534 1537 1540 1543 1544 1546 1548 1549 1551 1552 1553 1554 1555 1557 1558 1559 1560 1561 1562 1563 1564 1565 1566 1566 1567 1568 1568 1568
1511 1513 1516 1518 1515 1509 1506 1505 1506 1508 1509 1510 1511 1514 1517 1518 1520 1522 1525 1528 1531 1534 1538 1541 1543 1545 1547 1548 1550 1552 1553 1554 1556 1557 1558 1559 1561 1562 1563 1564 1565 1566 1566 1567 1568 1569 1569 1570 1570
1509 1510 1516 1516 1511 1506 1504 1504 1506 1506 1507 1509 1510 1513 1517 1518 1520 1524 1526 1530 1533 1535 1538 1541 1544 1546 1547 1549 1551 1552 1554 1555 1557 1558 1559 1561 1562 1563 1564 1565 1566 1567 1568 1569 1570 1570 1571 1571 1571
1508 1509 1510 1509 1508 1506 1502 1503 1504 1505 1506 1508 1509 1511 1515 1518 1521 1524 1528 1531 1534 1537 1539 1541 1544 1546 1548 1550 1551 1553 1555 1556 1558 1559 1560 1562 1563 1564 1565 1566 1567 1568 1569 1570 1571 1571 1572 1572 1573
1504 1507 1507 1507 1506 1504 1500 1501 1502 1503 1505 1507 1508 1509 1513 1517 1520 1524 1528 1532 1535 1537 1539 1542 1544 1546 1548 1550 1552 1554 1555 1557 1558 1560 1561 1563 1564 1565 1566 1567 1568 1569 1570 1571 1572 1572 1573 1573 1573
1503 1507 1507 1505 1504 1502 1500 1500 1501 1502 1503 1505 1507 1508 1510 1515 1519 1523 1527 1531 1534 1537 1539 1541 1544 1546 1548 1550 1552 1554 1556 1557 1559 1560 1562 1563 1565 1566 1567 1568 1569 1570 1571 1571 1572 1572 1573 1573 1573
1501 1505 1503 1501 1501 1500 1500 1500 1501 1501 1503 1505 1507 1508 1511 1514 1518 1521 1524 1528 1531 1534 1538 1540 1543 1545 1547 1549 1551 1553 1555 1557 1559 1560 1562 1563 1565 1566 1567 1568 1569 1570 1571 1571 1572 1572 1573 1573 1573
1499 1502 1501 1500 1500 1500 1500 1501 1501 1502 1505 1505 1506 1508 1511 1514 1517 1519 1523 1526 1530 1533 1536 1539 1542 1545 1547 1548 1550 1552 1554 1556 1558 1560 1561 1563 1564 1565 1567 1567 1568 1569 1570 1571 1571 1572 1572 1572 1572
1499 1500 1500 1501 1501 1501 1502 1502 1503 1503 1504 1505 1506 1507 1510 1513 1516 1518 1521 1525 1529 1532 1534 1537 1540 1543 1546 1548 1550 1551 1553 1555 1557 1559 1560 1562 1563 1564 1565 1566 1567 1568 1569 1570 1570 1571 1571 1571 1571
1500 1500 1501 1501 1501 1502 1502 1503 1503 1503 1504 1505 1507 1508 1510 1513 1516 1519 1522 1524 1527 1530 1533 1535 1538 1541 1544 1546 1548 1550 1552 1554 1556 1557 1559 1560 1562 1563 1564 1565 1566 1567 1568 1569 1569 1569 1570 1570 1570
1500 1501 1502 1502 1502 1503 1504 1504 1504 1504 1505 1506 1508 1509 1511 1513 1515 1518 1521 1523 1526 1528 1531 1534 1536 1539 1542 1544 1547 1549 1550 1552 1554 1556 1557 1559 1560 1561 1563 1564 1565 1566 1566 1567 1568 1568 1568 1568 1568
1500 1502 1503 1503 1503 1504 1505 1506 1505 1505 1506 1507 1508 1509 1511 1512 1515 1516 1519 1521 1524 1527 1529 1532 1534 1537 1539 1542 1545 1547 1549 1550 1552 1554 1555 1557 1558 1560 1561 1562 1563 1564 1564 1565 1565 1566 1566 1566 1566
1502 1505 1507 1505 1505 1506 1511 1511 1504 1505 1506 1507 1508 1509 1510 1511 1513 1515 1517 1519 1521 1524 1527 1529 1532 1535 1537 1540 1542 1545 1546 1548 1550 1552 1553 1555 1556 1558 1559 1560 1561 1562 1562 1563 1563 1563 1564 1563 1563
1505 1509 1509 1508 1506 1507 1511 1511 1505 1505 1506 1507 1508 1508 1509 1510 1511 1513 1515 1517 1520 1522 1524 1526 1529 1532 1534 1537 1540 1542 1544 1546 1548 1549 1551 1553 1554 1555 1557 1558 1559 1559 1560 1560 1561 1561 1561 1561 1560
1508 1509 1509 1509 1507 1508 1511 1510 1506 1505 1506 1506 1506 1507 1507 1508 1509 1510 1512 1515 1517 1519 1522 1524 1526 1529 1532 1535 1537 1539 1541 1543 1545 1547 1548 1550 1551 1552 1554 1555 1556 1556 1557 1557 1557 1558 1558 1557 1557
1504 1506 1508 1507 1506 1509 1510 1509 1506 1504 1505 1505 1504 1505 1505 1506 1507 1508 1510 1512 1514 1516 1518 1521 1523 1526 1529 1531 1533 1535 1537 1539 1541 1543 1545 1546 1548 1549 1550 1551 1552 1553 1553 1554 1554 1554 1554 1554 1554
1504 1506 1507 1506 1505 1507 1508 1508 1505 1503 1502 1501 1500 1501 1502 1502 1503 1505 1506 1508 1510 1512 1514 1517 1519 1522 1525 1527 1530 1532 1534 1536 1538 1540 1541 1543 1544 1545 1546 1548 1548 1549 1550 1550 1550 1550 1550 1550 1550
1504 1506 1506 1507 1506 1505 1508 1509 1504 1499 1498 1497 1496 1496 1497 1498 1499 1501 1503 1504 1506 1509 1511 1513 1515 1518 1520 1523 1526 1529 1531 1532 1534 1536 1537 1539 1540 1542 1543 1544 1545 1545 1546 1546 1546 1546 1546 1546 1546
1506 1503 1503 1505 1510 1513 1511 1516 1504 1498 1496 1493 1491 1491 1492 1493 1495 1496 1498 1500 1502 1504 1507 1509 1511 1514 1516 1519 1521 1523 1525 1526 1528 1531 1533 1535 1536 1538 1539 1540 1541 1541 1542 1542 1542 1542 1541 1541 1541
1504 1503 1504 1506 1510 1514 1512 1516 1505 1497 1494 1489 1486 1486 1486 1488 1490 1492 1494 1496 1498 1500 1503 1505 1507 1509 1512 1514 1517 1519 1521 1523 1525 1527 1529 1531 1532 1533 1534 1535 1536 1537 1537 1537 1537 1537 1537 1536 1536
1502 1505 1508 1512 1515 1519 1512 1515 1506 1496 1488 1483 1481 1480 1481 1483 1485 1487 1490 1492 1494 1496 1498 1500 1503 1505 1508 1510 1512 1515 1516 1518 1521 1522 1524 1526 1528 1529 1530 1531 1532 1532 1532 1532 1533 1532 1532 1531 1531
1506 1514 1523 1524 1526 1520 1510 1510 1501 1486 1481 1478 1477 1476 1477 1479 1481 1483 1485 1487 1490 1492 1494 1496 1499 1501 1503 1506 1508 1510 1512 1514 1516 1518 1520 1522 1523 1524 1526 1527 1527 1527 1527 1527 1527 1527 1527 1526 1526
1508 1513 1524 1525 1525 1520 1508 1507 1493 1480 1476 1474 1474 1474 1475 1476 1477 1479 1481 1483 1486 1488 1490 1493 1495 1497 1500 1501 1504 1506 1508 1510 1512 1514 1516 1517 1519 1520 1522 1522 1523 1523 1523 1523 1522 1522 1522 1521 1521
1508 1512 1512 1519 1520 1519 1511 1500 1488 1477 1475 1474 1473 1473 1473 1474 1475 1476 1478 1480 1482 1485 1487 1489 1491 1494 1496 1498 1500 1502 1504 1506 1508 1509 1511 1513 1515 1516 1517 1518 1518 1518 1518 1518 1518 1517 1517 1516 1515
1506 1509 1515 1518 1520 1516 1508 1502 1495 1483 1478 1476 1474 1473 1473 1474 1474 1475 1476 1478 1479 1482 1484 1486 1488 1490 1492 1494 1495 1497 1499 1501 1504 1505 1507 1509 1510 1511 1513 1513 1514 1513 1513 1513 1513 1512 1511 1511 1510
1508 1509 1511 1516 1518 1517 1511 1503 1486 1482 1479 1477 1475 1473 1473 1473 1474 1474 1475 1476 1477 1479 1481 1482 1484 1486 1487 1489 1491 1493 1495 1497 1499 1501 1503 1505 1506 1507 1508 1509 1509 1509 1508 1508 1508 1507 1506 1506 1505
1505 1507 1510 1516 1515 1515 1514 1501 1481 1480 1477 1476 1474 1473 1473 1473 1473 1473 1473 1474 1475 1476 1477 1479 1480 1482 1483 1485 1487 1488 1490 1492 1495 1497 1499 1500 1502 1503 1504 1504 1504 1504 1504 1504 1503 1502 1502 1501 1500